Regional Weather Roundup
Issued by NWS Wakefield, VA

Home | Current Version | Previous Version | Text Only | Print | Product List | Glossary Off
Versions: 1 2 3 4 5 6 7 8 9 10 11 12 13 14 15 16 17 18 19 20 21 22 23 24 25 26 27 28 29 30 31 32 33 34 35 36 37 38 39 40 41 42 43 44 45 46 47 48 49 50

000
ASUS41 KAKQ 271115
RWRAKQ

REGIONAL WEATHER ROUNDUP
NATIONAL WEATHER SERVICE WAKEFIELD VA
700 AM EDT WED JUL 27 2016

Note: "fair" indicates few or no clouds below 12,000 feet with no
significant weather and/or obstructions to visibility. * = Denotes
station may not report precipitation (e.g., rain,snow,etc.),
thunder or fog.

VAZ042-051-052>054-056-271200-
NORTHERN VIRGINIA

CITY           SKY/WX    TMP DP  RH WIND       PRES   REMARKS
WASH NATIONAL  MOCLDY    81  73  76 N7        29.95R
DULLES         MOCLDY    79  71  76 NW6       29.96R
FORT BELVOIR   FAIR      74  72  93 CALM      29.94S
QUANTICO       FAIR      77  73  87 NW7       29.95R
FREDERICKSBRG* FAIR      74  74 100 CALM      29.94S
STAFFORD*      FAIR      72  71  95 CALM      29.99R
WARRENTON        N/A     73  68  86 CALM      29.96R HAZE
CULPEPER*      FAIR      74  74 100 CALM      29.97S FOG
MANASSAS*      CLEAR     73  73 100 CALM      29.95R
LEESBURG*      FAIR      79  72  78 N3        29.98S
WINCHESTER     FAIR      75  72  88 CALM      30.00R
FRONT ROYAL*   FAIR      72  72 100 CALM      29.99S
LURAY*         FOG      N/A N/A N/A CALM      30.01S VSB 1
$$

VAZ048-049-060>072-079>083-271200-
CENTRAL AND SOUTH CENTRAL VIRGINIA

CITY           SKY/WX    TMP DP  RH WIND       PRES   REMARKS
RICHMOND       FAIR      73  72  96 CALM      29.94F
CHESTERFIELD*  FAIR      73  61  64 CALM      29.97S
PETERSBURG*    FAIR     N/A N/A N/A CALM      29.96S HAZE
HANOVER        FAIR      73  70  90 CALM      29.97S
TAPPAHANNOCK*  FAIR      74  74 100 CALM      29.95S
QUINTON*       FAIR      72  72 100 CALM      29.93F
CHARLOTTSVILLE FAIR      76  73  91 CALM      29.97R
GORDONSVILLE*  FAIR      73  72  96 CALM      29.97R
ORANGE*          N/A     73  73 100 CALM      29.99R
LOUISA*        FAIR      75  73  94 CALM      29.96R FOG
BUMPASS*       FAIR      72  72 100 SW3       29.96S
FARMVILLE*     FAIR     N/A N/A N/A CALM      29.96S FOG
CREWE*         FAIR      72  72 100 CALM      29.97S
FORT PICKETT*  FAIR      71  70  98 CALM      29.98R
CHASE CITY*    CLOUDY    73  71  95 CALM      29.99S VSB 3/4
CLARKSVILLE*   PTSUNNY   72  72 100 CALM      29.98S
SOUTH HILL*    CLOUDY    73  73 100 CALM      30.04R VSB<1/4
LAWRENCEVILLE* CLOUDY    73  73 100 CALM      29.98R VSB 1/2
EMPORIA*       FAIR      72  72 100 CALM      29.98S FOG
$$

VAZ088>098-271200-
SOUTHEAST VIRGINIA

CITY           SKY/WX    TMP DP  RH WIND       PRES   REMARKS
NORFOLK        FAIR      80  75  84 NW5       29.94R
VIRGINIA BEACH MOCLDY    83  74  74 NW3       29.93R
NORFOLK NAVAL  FAIR      80  76  87 NW5       29.96R
WEST POINT*    FAIR      75  74  96 CALM      29.95S
SALUDA*        PTSUNNY   76  76  99 CALM      29.94S
NEWPORT NEWS   FAIR      77  76  96 CALM      29.94S
LANGLEY AFB    MOCLDY    79  77  94 W2        29.94R
FORT EUSTIS    MOCLDY    79  75  89 W3        29.93R
WILLIAMSBURG*  FAIR      77  75  94 CALM      29.95F
HR EXEC AP*    FAIR      75  72  88 CALM      29.97S
FRANKLIN*      MOCLDY    74  73  99 CALM      29.96S FOG
US460-WAKEFLD  FOG       74  73  97 CALM      29.95F VSB<1/4
$$

VAZ020-022-025-037-045-271200-
WEST CENTRAL AND SOUTHWEST VIRGINIA

CITY           SKY/WX    TMP DP  RH WIND       PRES   REMARKS
STAUNTON*      FOG       70  70 100 CALM      30.04S VSB<1/4
WAYNESBORO*    FAIR      69  68  96 MISG      30.03S
HOT SPRINGS VA FAIR      68  68 100 W9        30.15S
LYNCHBURG      FOG       71  71 100 CALM      30.02R VSB 1
DANVILLE       FOG       72  72 100 CALM      30.00R VSB 1/2
SOUTH BOSTON*  FAIR      72  70  95 CALM      29.99S
MARTINSVILLE   FAIR      70  69  96 CALM      30.04R
ROANOKE        FAIR      74  72  93 NE5       30.04R
BLACKSBURG     FAIR      70  69  98 CALM      30.12S
DUBLIN*        FAIR      70  70 100 CALM      30.10S FOG
MARION*        CLOUDY    72  70  94 W7        30.15S FOG
HILLSVILLE*      N/A     70  70 100 SW5       30.12R FOG
RICHLANDS*     PTSUNNY   72  71  98 CALM      30.13R
WISE*          CLOUDY    72  70  94 CALM      30.15R
ABINGDON*      MOCLDY    72  71  97 CALM      30.11R
$$

MDZ021>025-VAZ099-100-271200-
SOUTHERN MARYLAND AND THE DELMARVA PENINSULA

CITY           SKY/WX    TMP DP  RH WIND       PRES   REMARKS
PATUXENT RIVER CLOUDY    79  75  87 W5        29.93R
BAY BRIDGE APT CLOUDY    81  73  78 N5        29.93S
LEONARDTOWN      N/A     77  73  88 MISG        N/A
DOVER          CLOUDY    79  79 100 N2        29.92R
GEORGETOWN     CLOUDY    80  77  90 SW6       29.94R FOG
EASTON         NOT AVBL
CAMBRIDGE      CLOUDY    77  77 100 CALM      29.93S
SALISBURY      CLOUDY    78  77  96 CALM      29.93S FOG
OCEAN CITY     CLOUDY   N/A N/A N/A SW3       29.93R
WALLOPS ISLAND LGT RAIN  81  78  91 S6        29.94R FOG
ACCOMACK*      FAIR      77  72  83 CALM      29.94R
$$

NCZ012>017-030>032-271200-
NORTH CENTRAL AND EASTERN NORTH CAROLINA

CITY           SKY/WX    TMP DP  RH WIND       PRES   REMARKS
ROANOKE RAPIDS FAIR      72  72 100 CALM      29.97S FOG
RALEIGH        MOCLDY    76  75  97 CALM      29.98R
ELIZABETH CITY PTCLDY    76  74  93 CALM      29.95R
AHOSKIE*       CLOUDY    73  72  98 CALM      29.97S FOG
EDENTON*       PTCLDY   N/A N/A N/A CALM      29.97R
CURRITUCK*     PTCLDY    77  76  99 CALM      29.96R
KILL DEVIL HLS PTCLDY    81  76  85 CALM      29.94R
MANTEO           N/A     80  79  96 NW5       29.96R
CAPE HATTERAS  CLOUDY    82  77  84 SW8       29.96R
TARBORO*       FAIR      77  75  95 N6        29.97R
GOLDSBORO      CLEAR     79  79 100 SW5       29.95S
WASHINGTON     PTCLDY    79  75  88 SW7       29.95S
GREENVILLE     CLOUDY    81  77  89 SW7       29.97S
NEW BERN       PTCLDY    77  74  90 SW6       29.98S
WILMINGTON     MOCLDY    81  74  79 SW12      29.99S
$$

VAZ048-271200-
ELSEWHERE

CITY           SKY/WX    TMP DP  RH WIND       PRES   REMARKS
HARRISBURG PA  MOCLDY    75  64  68 VRB3      29.97R
BALTIMORE      CLOUDY    79  67  66 VRB5      29.94R
ANNAPOLIS      CLOUDY    80  72  76 W3        29.93R
ANDREWS AFB    FAIR      75  73  92 CALM      29.94S
PHILADELPHIA   CLOUDY    78  64  61 NE8       29.95S
GREENSBORO     CLOUDY    77  75  93 NE3       30.01R
ROCKY MOUNT    PTCLDY    77  77 100 S3        29.96R
$$

VAZ100-271200-
MARINE

STATION/POSITION TIME  TEMP    WIND        PRES    WAVE   SWELL
                       AIR SEA DIR/SP/G            HT/PER HT/PER
                 (UTC) (F)     (DEG/KT/KT) (MB)    (FT/S) (FT/S)
BRANDYWINE LGT   1000   78     190/  3/  3   N/A
CAPE MAY NJ      1000   76 72   60/  5/  8 1012.8R
LEWES DE         1000   80 75  190/  4/  4 1012.8F
OCEAN-CITY-INLET 1000   75 71  230/  3/  4 1013.5R
WACHAPREAGUE VA  1000   80 86  270/  3/  5 1013.3R
THOMAS POINT MD  1100   81 84  320/  6/  8 1015.0R
GOOSES REEF MD   1000   82 85  270/  4/  6 1014.6R   1
COVE POINT MD    1000   81     340/  7/ 10 1014.0R
SOLOMONS ISLAND  1000   80 86  270/  6/  7   N/A
BISHOPS HEAD MD  1000   81 86   10/  3/  4 1013.5R
PINEY POINT MD   1000          290/  5/  6   N/A
POTOMAC MD       1000   80 86  280/  8/ 10 1012.5R   1/ 2
CAMBRIDGE MD     1000   80 87  280/  6/  7 1012.8R
LEWISETTA VA     1000   78 87  300/  4/  5 1013.3R
RAPPAHANNOCK LGT 1000          350/  9/ 10 1013.9R
STINGRAY PT      1000   80 84  280/  8/ 12 1013.9R   1
YORK RVR RNG VA  1000   80     310/  6/  7 1013.2R
YORKTOWN VA      1000   78 84  350/  6/  8 1013.3R
JAMESTOWN VA     1000   78 89  350/  4/  8   N/A     0
DOMINION TERM VA 1000   79     280/  5/  6 1013.8R
KIPTOPEKE VA     1000      80  320/  6/  7   N/A
CHES BAY BRIDGE  1000   80 70  260/  7/  8 1013.5R
CAPE HENRY VA    1000   79     260/  5/  6   N/A
WILLOUBY STN VA  1000   79      CALM  /  1   N/A
CAPE HENRY BUOY  1012      71                N/A     1/ 6
1ST LANDING BUOY 1000   80 79  320/  8/  8 1013.3R
OFFSHORE WE BUOY 1051      81                N/A     2/ 6
64NM E OF VA BCH 1050   80 80  220/  2/  2 1013.4R   3/ 6   3/ 6
DUCK PIER NC     1000   81 64  330/  6/  7 1013.2R
44100 DUCK FRF   1005      77                N/A     2/ 6
44056 DUCK FRF   1011      66                N/A     1/ 6
OREGON INLET NC  1000   81 85  280/  9/ 12 1014.0R
HATTERAS NC      1000   80 83  230/  7/ 11 1013.9S
DIAMOND SHLS NC  1050   84 84  250/ 16/ 19 1014.5R   4/ 6
CAPE LOOKOUT NC  1100   83     250/ 14/ 20 1014.8R
$$



USA.gov is the U.S. government's official web portal to all federal, state and local government web resources and services.